Regional Weather Roundup
Issued by NWS

Home | Current Version | Previous Version | Graphics & Text | Print | Product List | Glossary On
Versions: 1 2 3 4 5 6 7 8 9 10 11 12 13 14 15 16 17 18 19 20 21 22 23 24 25 26 27 28 29 30 31 32 33 34 35 36 37 38 39 40 41 42 43 44 45 46 47 48 49 50
000
ASUS43 KTOP 200559
RWRKS

WEATHER ROUNDUP FOR KANSAS
NATIONAL WEATHER SERVICE GOODLAND KS
1200 AM CST SAT DEC 20 2014

NOTE:  "FAIR" INDICATES FEW OR NO CLOUDS BELOW 12,000 FEET WITH NO
SIGNIFICANT WEATHER AND/OR OBSTRUCTIONS TO VISIBILITY.

KSZ001>006-013>018-027>032-041>047-200700-
NORTHWEST KANSAS

CITY           SKY/WX    TMP DP  RH WIND       PRES   REMARKS
GOODLAND       MOCLDY    33  28  81 SW10      30.05S WCI  25
6HR MIN TEMP:  28; 6HR MAX TEMP:  37;

HAYS           CLEAR     30  23  74 CALM      30.09S
HILL CITY      CLEAR     35  29  78 SW9       30.06S
6HR MIN TEMP:  33; 6HR MAX TEMP:  41;

RUSSELL        MOCLDY    34  32  92 SW13      30.07F WCI  25
6HR MIN TEMP:  33; 6HR MAX TEMP:  36;

$$

KSZ061>065-074>080-084>089-200700-
SOUTHWEST KANSAS

CITY           SKY/WX    TMP DP  RH WIND       PRES   REMARKS
DODGE CITY     CLEAR     33  30  88 SW14      30.12R FOG     WCI  23
6HR MIN TEMP:  29; 6HR MAX TEMP:  35;

ELKHART          N/A    N/A N/A N/A MISG        N/A
GARDEN CITY    CLEAR     26  26 100 SW8       30.09F FOG
6HR MIN TEMP:  26; 6HR MAX TEMP:  35;

GREAT BEND     CLEAR     30  27  86 MISG        N/A
LIBERAL        CLEAR     30  27  86 SW7       30.13F
$$

KSZ066>073-081>083-090>101-200700-
SOUTHEAST KANSAS

CITY           SKY/WX    TMP DP  RH WIND       PRES   REMARKS
CHANUTE        CLOUDY    34  33  96 CALM      30.20F FOG
6HR MIN TEMP:  34; 6HR MAX TEMP:  35;

COFFEYVILLE    CLOUDY    36  34  92 CALM      30.22S FOG
6HR MIN TEMP:  36; 6HR MAX TEMP:  37;

HUTCHINSON     CLEAR     32  29  88 S8        30.15R FOG
6HR MIN TEMP:  31; 6HR MAX TEMP:  38;

MEDICINE LODGE   N/A     34  33  96 S6        30.15S
NEWTON         CLOUDY    36  30  80 SW9       30.17R
PARSONS        CLOUDY    36  36 100 CALM      30.22S FOG
6HR MIN TEMP:  36; 6HR MAX TEMP:  37;

WICHITA INTL   CLOUDY    38  34  85 S7        30.18R
6HR MIN TEMP:  37; 6HR MAX TEMP:  38;

WICHITA JABRA  CLOUDY    36  33  89 S7        30.17R
6HR MIN TEMP:  35; 6HR MAX TEMP:  36;

WICHITA MCCONL CLOUDY    37  34  88 S7        30.18R
WINFIELD       CLOUDY    37  34  89 S6        30.21R
6HR MIN TEMP:  37; 6HR MAX TEMP:  38;

$$

KSZ007>012-019>026-033>040-048>060-102>105-200700-
NORTHEAST KANSAS

CITY           SKY/WX    TMP DP  RH WIND       PRES   REMARKS
CONCORDIA      PTCLDY    31  31 100 S13       30.08F FOG     WCI  21
6HR MIN TEMP:  30; 6HR MAX TEMP:  33;

EMPORIA        CLOUDY    33  30  88 S7        30.18S
6HR MIN TEMP:  32; 6HR MAX TEMP:  33;

LAWRENCE       CLOUDY    33  28  81 SW5       30.22S
6HR MIN TEMP:  33; 6HR MAX TEMP:  33;

MANHATTAN      CLOUDY    34  32  92 S6        30.16S
6HR MIN TEMP:  34; 6HR MAX TEMP:  35;

OLATHE IND     LGT SNOW  32  32 100 W3        30.21S VSB 3/4
6HR MIN TEMP:  32; 6HR MAX TEMP:  32; 6HR PCP: TRACE;

OLATHE EXE     CLOUDY    33  32  96 W3        30.20S FOG
6HR MIN TEMP:  33; 6HR MAX TEMP:  33;

SALINA         CLEAR     31  29  92 S9        30.13S FOG
6HR MIN TEMP:  30; 6HR MAX TEMP:  35;

TOPEKA BILLARD CLOUDY    34  29  82 CALM      30.22S
6HR MIN TEMP:  33; 6HR MAX TEMP:  34;

TOPEKA FORBES  CLOUDY    34  29  82 S3        30.20S
6HR MIN TEMP:  33; 6HR MAX TEMP:  34;

$$


USA.gov is the U.S. government's official web portal to all federal, state and local government web resources and services.